Time,TemperatureF,DewpointF,PressureIn,WindDirection,WindDirectionDegrees,WindSpeedMPH,WindSpeedGustMPH,Humidity,HourlyPrecipIn,Conditions,Clouds,dailyrainin,SoftwareType,DateUTC
2013-10-05 00:13:00,52.0,35.0,30.02,North,350,5.0,12.0,52,0.00,,,0.00,,2013-10-05 05:13:00,
2013-10-05 00:22:00,52.0,34.0,30.03,North,355,7.0,14.0,50,0.00,,,0.00,,2013-10-05 05:22:00,
2013-10-05 00:52:00,51.0,34.0,30.04,NNW,346,5.0,14.0,51,0.00,,,0.00,,2013-10-05 05:52:00,
2013-10-05 01:12:00,51.0,34.0,30.04,NW,307,7.0,14.0,51,0.00,,,0.00,,2013-10-05 06:12:00,
2013-10-05 01:22:00,50.0,33.0,30.02,NNW,343,7.0,20.0,52,0.00,,,0.00,,2013-10-05 06:22:00,
2013-10-05 01:42:00,49.0,33.0,30.04,NW,309,6.0,11.0,53,0.00,,,0.00,,2013-10-05 06:42:00,
2013-10-05 01:52:00,50.0,33.0,30.05,NW,319,9.0,18.0,51,0.00,,,0.00,,2013-10-05 06:52:00,
2013-10-05 02:22:00,49.0,32.0,30.04,NNW,346,4.0,13.0,51,0.00,,,0.00,,2013-10-05 07:22:00,
2013-10-05 02:52:00,49.0,33.0,30.05,NNE,22,9.0,14.0,53,0.00,,,0.00,,2013-10-05 07:52:00,
2013-10-05 03:12:00,48.0,32.0,30.05,NW,320,7.0,13.0,54,0.00,,,0.00,,2013-10-05 08:12:00,
2013-10-05 03:23:00,48.0,33.0,30.06,North,360,2.0,11.0,55,0.00,,,0.00,,2013-10-05 08:23:00,
2013-10-05 03:52:00,48.0,33.0,30.02,NW,304,4.0,13.0,55,0.00,,,0.00,,2013-10-05 08:52:00,
2013-10-05 04:11:00,48.0,33.0,30.03,NNW,334,3.0,12.0,56,0.00,,,0.00,,2013-10-05 09:11:00,
2013-10-05 04:22:00,48.0,33.0,30.03,NNW,340,6.0,11.0,56,0.00,,,0.00,,2013-10-05 09:22:00,
2013-10-05 04:54:00,47.0,33.0,30.04,North,5,5.0,12.0,57,0.00,,,0.00,,2013-10-05 09:54:00,
2013-10-05 05:23:00,47.0,33.0,30.04,NNW,340,5.0,13.0,59,0.00,,,0.00,,2013-10-05 10:23:00,
2013-10-05 05:53:00,46.0,33.0,30.05,NW,304,3.0,9.0,60,0.00,,,0.00,,2013-10-05 10:53:00,
2013-10-05 06:11:00,46.0,33.0,30.05,North,355,3.0,12.0,60,0.00,,,0.00,,2013-10-05 11:11:00,
2013-10-05 06:22:00,46.0,34.0,30.06,NW,321,4.0,9.0,62,0.00,,,0.00,,2013-10-05 11:22:00,
2013-10-05 06:43:00,46.0,33.0,30.06,NW,309,4.0,11.0,61,0.00,,,0.00,,2013-10-05 11:43:00,
2013-10-05 06:52:00,46.0,34.0,30.06,NNW,336,2.0,9.0,62,0.00,,,0.00,,2013-10-05 11:52:00,
2013-10-05 07:12:00,46.0,34.0,30.06,NW,318,2.0,9.0,62,0.00,,,0.00,,2013-10-05 12:12:00,
2013-10-05 07:22:00,46.0,34.0,30.06,NW,306,2.0,6.0,63,0.00,,,0.00,,2013-10-05 12:22:00,
2013-10-05 07:52:00,46.0,34.0,30.06,NW,317,4.0,11.0,62,0.00,,,0.00,,2013-10-05 12:52:00,
2013-10-05 08:12:00,46.0,33.0,30.06,NW,307,2.0,10.0,60,0.00,,,0.00,,2013-10-05 13:12:00,
2013-10-05 08:22:00,47.0,34.0,30.06,North,350,5.0,10.0,60,0.00,,,0.00,,2013-10-05 13:22:00,
2013-10-05 08:42:00,47.0,33.0,30.06,North,355,6.0,12.0,59,0.00,,,0.00,,2013-10-05 13:42:00,
2013-10-05 08:52:00,47.0,33.0,30.06,NNW,348,6.0,14.0,58,0.00,,,0.00,,2013-10-05 13:52:00,
2013-10-05 09:22:00,47.0,33.0,30.06,NNW,334,6.0,11.0,58,0.00,,,0.00,,2013-10-05 14:22:00,
2013-10-05 09:42:00,47.0,33.0,30.06,NW,313,3.0,12.0,59,0.00,,,0.00,,2013-10-05 14:42:00,
2013-10-05 09:52:00,48.0,33.0,30.07,North,360,8.0,17.0,56,0.00,,,0.00,,2013-10-05 14:52:00,
2013-10-05 10:12:00,49.0,34.0,30.07,North,355,2.0,10.0,56,0.00,,,0.00,,2013-10-05 15:12:00,
2013-10-05 10:22:00,48.0,33.0,30.09,NNW,337,3.0,11.0,55,0.00,,,0.00,,2013-10-05 15:22:00,
2013-10-05 10:53:00,48.0,33.0,30.09,NNW,330,4.0,11.0,55,0.00,,,0.00,,2013-10-05 15:53:00,
2013-10-05 11:13:00,49.0,34.0,30.09,WNW,297,2.0,9.0,56,0.00,,,0.00,,2013-10-05 16:13:00,
2013-10-05 11:23:00,49.0,33.0,30.09,NW,323,3.0,16.0,54,0.00,,,0.00,,2013-10-05 16:23:00,
2013-10-05 11:43:00,49.0,33.0,30.09,NNW,342,5.0,16.0,53,0.00,,,0.00,,2013-10-05 16:43:00,
2013-10-05 11:53:00,50.0,33.0,30.11,NW,319,3.0,17.0,52,0.00,,,0.00,,2013-10-05 16:53:00,
2013-10-05 12:12:00,51.0,34.0,30.10,NW,314,6.0,15.0,51,0.00,,,0.00,,2013-10-05 17:12:00,
2013-10-05 12:22:00,53.0,35.0,30.10,NW,315,1.0,13.0,50,0.00,,,0.00,,2013-10-05 17:22:00,
2013-10-05 12:42:00,55.0,35.0,30.10,NNE,22,5.0,13.0,46,0.00,,,0.00,,2013-10-05 17:42:00,
2013-10-05 12:52:00,56.0,35.0,30.08,WNW,296,3.0,9.0,45,0.00,,,0.00,,2013-10-05 17:52:00,
2013-10-05 13:12:00,57.0,35.0,30.07,NW,325,1.0,14.0,43,0.00,,,0.00,,2013-10-05 18:12:00,
2013-10-05 13:22:00,58.0,36.0,30.06,NW,317,6.0,15.0,43,0.00,,,0.00,,2013-10-05 18:22:00,
2013-10-05 13:42:00,58.0,35.0,30.06,NW,310,4.0,15.0,42,0.00,,,0.00,,2013-10-05 18:42:00,
2013-10-05 13:52:00,59.0,35.0,30.06,WNW,285,2.0,15.0,41,0.00,,,0.00,,2013-10-05 18:52:00,
2013-10-05 14:11:00,59.0,35.0,30.05,NW,308,6.0,15.0,41,0.00,,,0.00,,2013-10-05 19:11:00,
2013-10-05 14:22:00,59.0,35.0,30.01,NW,318,4.0,20.0,40,0.00,,,0.00,,2013-10-05 19:22:00,
2013-10-05 14:42:00,60.0,36.0,30.00,NNW,331,0.0,16.0,40,0.00,,,0.00,,2013-10-05 19:42:00,
2013-10-05 14:52:00,60.0,35.0,29.99,NNW,342,7.0,14.0,39,0.00,,,0.00,,2013-10-05 19:52:00,
2013-10-05 15:11:00,61.0,36.0,29.99,WNW,284,7.0,16.0,39,0.00,,,0.00,,2013-10-05 20:11:00,
2013-10-05 15:22:00,61.0,36.0,29.98,North,355,5.0,14.0,39,0.00,,,0.00,,2013-10-05 20:22:00,
2013-10-05 15:42:00,62.0,35.0,29.97,West,261,8.0,17.0,37,0.00,,,0.00,,2013-10-05 20:42:00,
2013-10-05 15:52:00,62.0,35.0,29.98,NE,40,7.0,13.0,37,0.00,,,0.00,,2013-10-05 20:52:00,
2013-10-05 16:12:00,62.0,35.0,29.97,NNW,348,9.0,16.0,36,0.00,,,0.00,,2013-10-05 21:12:00,
2013-10-05 16:22:00,62.0,35.0,29.96,ENE,73,6.0,17.0,37,0.00,,,0.00,,2013-10-05 21:22:00,
2013-10-05 16:44:00,62.0,36.0,29.96,WNW,287,7.0,14.0,38,0.00,,,0.00,,2013-10-05 21:44:00,
2013-10-05 16:54:00,62.0,36.0,29.96,WNW,294,5.0,13.0,38,0.00,,,0.00,,2013-10-05 21:54:00,
2013-10-05 17:24:00,62.0,35.0,29.95,WNW,296,3.0,12.0,37,0.00,,,0.00,,2013-10-05 22:24:00,
2013-10-05 17:42:00,62.0,35.0,29.95,NW,312,2.0,16.0,37,0.00,,,0.00,,2013-10-05 22:42:00,
2013-10-05 17:53:00,61.0,35.0,29.95,WNW,300,3.0,18.0,37,0.00,,,0.00,,2013-10-05 22:53:00,
2013-10-05 18:22:00,60.0,34.0,29.95,NNW,340,7.0,17.0,37,0.00,,,0.00,,2013-10-05 23:22:00,
2013-10-05 18:43:00,60.0,34.0,29.96,NW,304,9.0,19.0,38,0.00,,,0.00,,2013-10-05 23:43:00,
2013-10-05 18:53:00,59.0,34.0,29.96,NW,307,6.0,13.0,39,0.00,,,0.00,,2013-10-05 23:53:00,
2013-10-05 19:12:00,58.0,33.0,29.97,West,281,8.0,16.0,39,0.00,,,0.00,,2013-10-06 00:12:00,
2013-10-05 19:23:00,57.0,34.0,29.98,WNW,300,9.0,18.0,41,0.00,,,0.00,,2013-10-06 00:23:00,
2013-10-05 19:43:00,56.0,34.0,29.98,North,350,3.0,11.0,43,0.00,,,0.00,,2013-10-06 00:43:00,
2013-10-05 19:52:00,55.0,33.0,29.98,WNW,302,3.0,10.0,43,0.00,,,0.00,,2013-10-06 00:52:00,
2013-10-05 20:11:00,55.0,33.0,29.98,NNW,334,4.0,11.0,43,0.00,,,0.00,,2013-10-06 01:11:00,
2013-10-05 20:22:00,53.0,32.0,29.98,NW,323,0.0,7.0,45,0.00,,,0.00,,2013-10-06 01:22:00,
2013-10-05 20:42:00,52.0,33.0,29.98,NW,306,0.0,5.0,48,0.00,,,0.00,,2013-10-06 01:42:00,
2013-10-05 20:52:00,51.0,33.0,29.98,NNW,343,1.0,4.0,50,0.00,,,0.00,,2013-10-06 01:52:00,
2013-10-05 21:22:00,51.0,33.0,29.98,NW,314,2.0,5.0,49,0.00,,,0.00,,2013-10-06 02:22:00,
2013-10-05 21:42:00,50.0,33.0,29.99,NNW,328,1.0,5.0,51,0.00,,,0.00,,2013-10-06 02:42:00,
2013-10-05 21:52:00,49.0,32.0,29.99,WNW,293,0.0,5.0,52,0.00,,,0.00,,2013-10-06 02:52:00,
2013-10-05 22:22:00,50.0,33.0,30.00,NNW,327,0.0,6.0,52,0.00,,,0.00,,2013-10-06 03:22:00,
2013-10-05 22:44:00,49.0,33.0,30.00,NNW,336,1.0,6.0,53,0.00,,,0.00,,2013-10-06 03:44:00,
2013-10-05 22:54:00,49.0,33.0,30.01,WNW,284,0.0,4.0,54,0.00,,,0.00,,2013-10-06 03:54:00,
2013-10-05 23:24:00,48.0,34.0,30.01,WNW,292,0.0,4.0,57,0.00,,,0.00,,2013-10-06 04:24:00,
2013-10-05 23:44:00,47.0,33.0,30.00,WNW,302,0.0,4.0,58,0.00,,,0.00,,2013-10-06 04:44:00,
2013-10-05 23:54:00,46.0,32.0,30.00,WNW,300,1.0,5.0,59,0.00,,,0.00,,2013-10-06 04:54:00,